Location: Couledoux
(42.9265°N, 0.8096°E)
Time: 18:24:36
(UTC+00:00)

Daily predictions for brighter satellites

Satellite Brightness Start Highest point End
(mag) Time Altitude Azimuth Time Altitude Azimuth Time Altitude Azimuth
Cosmos 1943 3.5 19:27:26 10° NNW 19:33:04 71° WSW 19:38:41 10° SSE
Helios 1A Rocket 3.3 19:30:38 10° S 19:34:45 71° WSW 19:38:55 10° NNW
Cosmos 1844 Rocket 3.2 19:30:25 10° S 19:35:29 38° ESE 19:40:36 10° NE
Cosmos 1814 Rocket 4.1 19:33:25 10° NNW 19:38:40 88° WSW 19:43:50 10° SSE
Meteor 2-15 4.5 19:34:08 10° S 19:40:11 89° E 19:46:18 10° N
SL-4 R/B 2.5 19:36:23 10° NW 19:40:42 63° NNE 19:45:18 10° ESE
X-37B 1.2 19:40:21 10° W 19:43:31 58° N 19:46:40 10° ENE
IRS-1A Rocket 4.4 19:44:42 10° SSE 19:50:22 66° ENE 19:56:11 10° N
Cosmos 1745 Rocket 4.5 19:46:43 10° N 19:52:35 42° ENE 19:58:21 10° SE
SPOT 3 Rocket 4.4 19:49:12 10° SE 19:53:49 34° ENE 19:58:25 10° N
CZ-4 R/B 4.4 19:52:48 10° WSW 19:54:46 13° W 19:56:45 10° WNW
Cosmos 1844 4.0 19:50:13 10° S 19:55:38 46° ESE 20:01:03 10° NE
ERS-2 3.2 19:52:07 10° N 19:55:39 48° WNW 19:59:08 10° SSW
Resurs 1-3 3.7 19:51:34 10° SSE 19:55:51 58° ENE 20:00:11 10° N
Cosmos 968 Rocket 3.5 19:51:18 10° S 19:56:29 65° ESE 20:01:41 10° NNE
Cosmos 1743 Rocket 3.5 19:53:22 10° N 19:57:43 75° E 20:02:04 10° SSE
BREEZE-M DEB (TANK) 4.0 19:53:36 10° WNW 19:57:54 73° NNE 20:05:16 10° E
ATLAS 5 CENTAUR R/B 3.4 19:55:12 10° NNW 20:00:11 33° NE 20:05:41 11° ESE
BREEZE M DEB (TANK) 4.2 19:59:45 10° W 20:03:12 64° NNW 20:13:48 10° ENE
Cosmos 1486 Rocket 4.1 19:58:48 10° S 20:04:01 60° ESE 20:09:16 10° NNE
Intercosmos 25 Rocket 4.0 20:00:34 10° N 20:07:05 69° ENE 20:11:06 10° SSE
IGS 5A 4.2 20:04:26 14° SE 20:07:40 37° ENE 20:11:31 10° N
Cosmos 1500 Rocket 3.7 20:05:17 10° N 20:09:42 80° W 20:14:03 10° S
Cosmos 2221 3.8 20:05:42 10° SSW 20:09:48 44° WNW 20:13:58 10° N
S3M 4.1 20:04:13 10° S 20:10:28 59° E 20:16:41 10° NNE
BREEZE-M R/B 1.7 20:08:40 10° WSW 20:11:32 90° ENE 20:13:57 10° ENE
USA 186 3.9 20:10:16 10° SW 20:12:15 19° W 20:14:08 10° NW
FALCON 9 DEB 3.3 20:15:24 10° WNW 20:18:20 49° SW 20:20:03 21° SSE
Cosmos 1933 3.6 20:17:12 11° SSE 20:20:58 49° E 20:24:52 10° NNE
USA 245 4.3 20:23:41 13° ENE 20:23:41 13° ENE 20:24:46 10° NE
FALCON 9 DEB 3.7 20:21:43 10° WNW 20:24:34 39° SW 20:26:04 22° SSE
Cosmos 1242 Rocket 2.8 20:24:03 17° SSE 20:26:29 45° E 20:29:55 10° NNE
OBJECT-B 3.0 20:24:08 10° SSW 20:26:50 24° W 20:29:33 10° NW
Cosmos 1553 Rocket 4.3 20:23:03 10° SSW 20:29:07 70° W 20:35:20 10° N
Cosmos 1437 Rocket 3.1 20:26:37 10° SSW 20:30:25 65° WNW 20:34:21 10° N
BREEZE M DEB (TANK) 4.1 20:25:53 10° WNW 20:31:25 31° N 20:33:51 10° ENE
Resurs 01 Rocket 1.6 20:29:42 16° SSE 20:33:12 85° ENE 20:37:40 10° NNW
FALCON 9 DEB 3.5 20:30:31 10° WNW 20:33:26 43° SW 20:34:36 28° SSE
Spot 2 Rocket 4.2 20:34:13 22° ESE 20:36:54 37° ENE 20:41:32 10° N
SJ 16-02 3.6 20:38:19 11° E 20:38:19 11° E 20:38:42 10° ENE
DELTA 2 R/B (1) 3.8 20:33:14 10° W 20:38:39 55° S 20:41:51 24° ESE
Sich 1 3.0 20:35:40 10° N 20:40:01 89° E 20:43:00 20° S
Cosmos 2082 Rocket 4.3 20:39:51 10° N 20:43:00 15° NE 20:46:08 10° E
Meteor 1-20 Rocket 4.1 20:37:29 10° N 20:43:08 84° E 20:47:10 19° SSE
BREEZE-M DEB (TANK) 3.9 20:42:54 10° W 20:44:47 20° SSW 20:45:33 18° S
Cosmos 1782 3.0 20:43:16 28° SSE 20:45:02 50° E 20:48:55 10° NNE
CZ-4C R/B 3.8 20:38:53 10° NNW 20:45:32 40° NE 20:51:18 17° ESE
Cosmos 1500 4.3 20:43:21 10° NNE 20:46:35 27° ENE 20:47:10 26° E
ERS-1 Rocket 3.8 20:50:52 25° ESE 20:52:51 35° ENE 20:57:23 10° N
Cosmos 1503 Rocket 4.0 20:49:40 10° SSW 20:54:50 85° WNW 21:00:04 10° NNE
SPOT 5 3.8 20:52:52 26° ESE 20:54:50 36° ENE 20:59:34 10° N
Cosmos 1151 Rocket 2.9 20:58:03 26° S 21:00:26 78° E 21:04:50 10° N
Cosmos 1777 Rocket 4.4 20:58:39 31° SSE 21:00:29 42° ESE 21:05:22 10° NNE
USA 290 2.5 20:59:04 10° NNW 21:02:17 61° WSW 21:02:58 46° SSW
Terra 2.9 21:02:22 25° E 21:03:41 29° ENE 21:07:47 10° N
Cosmos 1602 3.6 21:01:11 10° N 21:05:03 85° W 21:06:20 41° S
Cosmos 2278 Rocket 2.7 21:05:44 33° SE 21:06:58 37° ESE 21:12:07 10° NE
CZ-2C R/B 4.1 21:09:10 10° N 21:13:35 61° WNW 21:17:35 13° SSW
Cosmos 1515 Rocket 3.7 21:17:35 49° SE 21:18:11 53° E 21:22:28 10° NNE
Cosmos 1844 Rocket 4.4 21:14:25 10° WSW 21:19:24 33° NW 21:24:26 10° N
SPOT 1/Viking Rocket 3.7 21:16:47 29° S 21:19:26 68° WSW 21:24:38 10° NNW
Cosmos 2084 3.2 21:17:53 32° SSW 21:19:43 75° SE 21:23:56 10° NE
SL-4 R/B 3.5 21:16:17 10° WNW 21:20:11 29° SW 21:21:08 27° SSW
X-37B 0.7 21:17:07 10° WNW 21:20:09 72° NNW 21:20:09 72° NNW
ARIANE 5 R/B 2.5 21:20:40 49° SSE 21:21:50 88° W 21:26:11 10° NNW
SWARM A 4.3 21:19:58 10° N 21:23:01 69° NE 21:23:01 69° NE
Cosmos 1437 3.4 21:25:46 46° NNW 21:25:46 46° NNW 21:27:57 10° N
JB-3 4.2 21:23:20 10° N 21:27:15 86° WNW 21:27:56 60° SSW
Cosmos 1633 Rocket 3.6 21:25:34 10° NNW 21:29:52 54° W 21:31:23 35° SSW
Cosmos 1812 2.5 21:31:31 79° ESE 21:31:34 80° E 21:35:26 10° N
Cosmos 1328 Rocket 4.3 21:36:50 27° SW 21:38:59 50° WNW 21:43:18 10° N
Cosmos 1470 Rocket 3.6 21:34:40 10° N 21:39:09 77° W 21:39:56 59° SSW
Cosmos 2184 Rocket 4.1 21:33:26 10° N 21:39:37 61° E 21:41:19 45° SE
Meteor 1-5 Rocket 4.0 21:35:18 10° N 21:40:44 82° E 21:42:00 54° SSE
CARTOSAT-1 4.0 21:44:08 46° SW 21:44:56 53° W 21:49:11 10° NNW
ATLAS 5 CENTAUR R/B 2.8 21:39:26 10° NW 21:45:06 56° WSW 21:47:13 39° S
Cosmos 2074 Rocket 4.0 21:41:17 10° N 21:47:36 73° E 21:49:23 49° SSE
NOSS 3-3 (A) 4.3 21:45:00 10° SW 21:50:39 62° NW 21:57:08 10° NNE
NOSS 3-3 (C) 4.3 21:45:05 10° SW 21:50:46 62° NW 21:57:15 10° NNE
Cosmos 1666 3.0 21:49:02 10° N 21:52:11 62° N 21:52:11 62° N
Nadezhda 1 Rocket 4.2 21:51:52 48° SE 21:53:04 55° E 21:59:11 10° NNE
Cosmos 1933 Rocket 3.4 21:49:22 10° N 21:53:42 82° W 21:53:49 81° SW
Cosmos 1833 Rocket 2.6 21:48:56 10° NNW 21:54:37 84° ENE 21:55:42 60° SE
ATLAS 2AS CENTAUR R/B 3.9 21:49:58 10° NNW 21:56:43 35° NE 22:00:31 21° E
Meteor 2-12 Rocket 4.5 21:51:53 10° N 21:57:55 63° E 21:59:02 53° SE
BREEZE-M DEB (TANK) 4.4 21:57:25 10° NW 21:57:58 15° NW 21:57:58 15° NW
Cosmos 1538 Rocket 3.9 21:57:54 10° NNW 22:03:18 88° WSW 22:03:56 70° SSE
Iridium 4 Rocket 3.9 22:01:47 46° SSW 22:03:28 72° W 22:09:23 10° N
USA 305 4.0 22:00:06 10° NW 22:04:07 38° NNE 22:04:41 36° NE
Cosmos 1610 Rocket 4.4 22:03:31 10° N 22:09:39 69° E 22:10:38 59° SE
SJ 16-02 1.5 22:15:15 67° WNW 22:15:15 67° WNW 22:19:39 10° NNE
Cosmos 158 Rocket 3.8 22:10:39 10° NNW 22:15:27 72° ENE 22:15:27 72° ENE
Cosmos 2228 Rocket 3.2 22:17:34 71° N 22:17:34 71° N 22:21:35 10° N
Meteor 1-27 Rocket 3.6 22:18:37 70° SSE 22:19:16 81° E 22:25:11 10° NNE
Cosmos 1680 Rocket 4.1 22:16:04 10° N 22:21:11 45° ENE 22:21:27 45° ENE
Cosmos 2341 Rocket 4.4 22:16:11 10° N 22:22:20 47° ENE 22:23:08 45° E
USA 306 3.7 22:19:10 10° NW 22:23:05 47° NNE 22:23:05 47° NNE
COSMOS 2406 3.4 22:19:44 10° NNW 22:25:16 55° WSW 22:25:47 53° SW
Cosmos 2082 Rocket 2.0 22:22:22 10° NNW 22:28:02 81° ENE 22:28:19 77° ESE
ERS-1 Rocket 4.3 22:30:51 27° WSW 22:31:39 29° W 22:36:00 10° NW
Milstar 3 4.4 22:23:01 10° WSW 22:29:42 27° SSW 22:29:42 27° SSW
SPOT 5 4.3 22:32:05 27° WSW 22:32:55 29° W 22:37:24 10° NW
CZ-4C R/B 3.2 22:27:12 10° NW 22:34:33 62° WSW 22:36:28 50° SSW
Cosmos 1271 Rocket 4.2 22:35:28 34° WNW 22:35:28 34° WNW 22:38:53 10° N
Terra 3.1 22:41:15 31° W 22:41:20 31° W 22:45:35 10° NNW
Meteor 1-11 Rocket 4.1 22:38:43 10° NNW 22:44:32 56° W 22:45:14 52° WSW
Cosmos 1295 Rocket 4.5 22:38:36 10° N 22:44:56 75° W 22:45:45 66° SSW
USA 307 4.0 22:44:27 10° NW 22:47:31 44° NNW 22:47:31 44° NNW
Cosmos 1340 Rocket 4.1 22:46:56 10° N 22:49:40 41° NNW 22:49:40 41° NNW
Cosmos 2278 Rocket 3.6 22:47:29 18° WSW 22:51:02 35° NW 22:56:12 10° N
Spot 4 4.2 22:53:27 63° NNE 22:53:27 63° NNE 22:57:40 10° N
Cosmos 923 Rocket 4.2 22:51:07 10° NNW 22:55:53 65° WNW 22:55:53 65° WNW
Cosmos 1898 Rocket 3.6 22:57:39 71° NNE 22:57:39 71° NNE 23:02:25 10° NNE
Cosmos 1536 4.5 22:56:56 10° NNW 22:59:30 30° NW 22:59:30 30° NW
Cosmos 2369 Rocket 3.6 23:03:27 26° ENE 23:03:27 26° ENE 23:06:43 10° NE
USA 308 4.3 22:57:55 10° NW 23:00:30 35° NW 23:00:30 35° NW
Meteor 2-9 Rocket 4.3 23:04:59 10° N 23:10:35 68° ENE 23:10:35 68° ENE
Cosmos 1943 Rocket 2.4 23:11:54 59° ENE 23:11:54 59° ENE 23:16:38 10° NNE
SL-8 Rocket 3.8 23:04:57 10° N 23:11:20 85° E 23:11:34 82° SE
ALOS 2 3.6 23:16:05 44° N 23:16:05 44° N 23:19:12 10° N
DNEPR-1 R/B 4.4 23:19:56 60° NE 23:19:56 60° NE 23:24:04 10° NE
Meteor 2-4 Rocket 4.3 23:20:31 49° ENE 23:20:31 49° ENE 23:25:24 10° NNE
Cosmos 44 3.8 23:15:55 10° NNW 23:20:48 66° N 23:20:48 66° N
Meteor 1-18 Rocket 4.3 23:33:04 76° NNW 23:33:04 76° NNW 23:38:20 10° N
NOSS 3-4 (A) 4.3 23:27:36 10° NW 23:34:24 47° WSW 23:34:29 47° WSW
NOSS 3-4 (C) 4.3 23:27:41 10° NW 23:34:30 48° WSW 23:34:35 48° WSW
Cosmos 1238 Rocket 4.1 23:30:44 10° NNW 23:36:40 57° W 23:36:40 57° W
SeaSat 1 3.4 23:35:00 10° NE 23:38:19 39° ENE 23:38:19 39° ENE
Cosmos 864 Rocket 4.4 23:33:53 10° N 23:39:57 74° W 23:39:57 74° W
Cosmos 1959 Rocket 4.5 23:36:42 10° NNW 23:42:51 69° W 23:42:51 69° W
USA 215 3.4 23:42:20 45° E 23:44:23 69° NE 23:50:52 10° NW
Cosmos 2297 4.3 23:45:51 46° WNW 23:46:22 48° WNW 23:51:52 10° NNE
ATLAS 2AS CENTAUR R/B 2.8 23:40:58 10° NW 23:47:56 61° WSW 23:47:56 61° WSW
Cosmos 2181 Rocket 4.4 23:52:11 48° W 23:52:36 48° WNW 23:58:33 10° N
